| time (UTC) | temp C | wind direction | speed KPH | gust KPH | rain 1hr cm | rain 24hr cm | rain mn cm | humidity % | barometer mb |
| 20260505100447 | 7 | 17 | 0.0 | 0.0 | 0.00 | 0.00 | 0.00 | 100 | 1024.7 |
| 20260505095042 | 7 | 288 | 1.6 | 0.0 | 0.00 | 0.00 | 0.00 | 100 | 1024.8 |
| 20260505093640 | 7 | 297 | 4.8 | 6.4 | 0.00 | 0.00 | 0.00 | 100 | 1024.9 |
| 20260505092236 | 7 | 356 | 1.6 | 3.2 | 0.00 | 0.00 | 0.00 | 100 | 1025.2 |
| 20260505090836 | 7 | 284 | 1.6 | 4.8 | 0.00 | 0.00 | 0.00 | 100 | 1025.3 |
| 20260505085429 | 7 | 45 | 3.2 | 4.8 | 0.00 | 0.00 | 0.00 | 100 | 1025.3 |
| 20260505084026 | 8 | 7 | 0.0 | 3.2 | 0.00 | 0.00 | 0.00 | 100 | 1025.3 |
| 20260505082622 | 8 | 37 | 1.6 | 3.2 | 0.00 | 0.00 | 0.00 | 100 | 1025.4 |
| 20260505081218 | 8 | 284 | 4.8 | 1.6 | 0.00 | 0.00 | 0.00 | 100 | 1025.5 |
| 20260505075814 | 8 | 15 | 3.2 | 3.2 | 0.00 | 0.00 | 0.00 | 100 | 1025.7 |
| 20260505074409 | 8 | 38 | 0.0 | 0.0 | 0.00 | 0.00 | 0.00 | 100 | 1025.7 |
| 20260505073004 | 8 | 349 | 1.6 | 4.8 | 0.00 | 0.00 | 0.00 | 100 | 1025.9 |
| 20260505071600 | 8 | 305 | 1.6 | 1.6 | 0.00 | 0.00 | 0.00 | 100 | 1026.1 |
| 20260505070156 | 8 | 343 | 8.0 | 3.2 | 0.00 | 0.00 | 0.00 | 100 | 1026.0 |
| 20260505064753 | 8 | 312 | 4.8 | 9.7 | 0.00 | 0.00 | 0.00 | 100 | 1025.9 |
| 20260505063348 | 8 | 353 | 1.6 | 1.6 | 0.00 | 0.00 | 0.00 | 100 | 1025.9 |
| 20260505061946 | 8 | 350 | 4.8 | 3.2 | 0.00 | 0.00 | 0.00 | 100 | 1025.8 |
| 20260505060542 | 8 | 346 | 4.8 | 4.8 | 0.00 | 0.00 | 0.00 | 100 | 1025.7 |
| 20260505055141 | 8 | 346 | 4.8 | 8.0 | 0.00 | 0.00 | 0.00 | 100 | 1025.6 |
| 20260505053735 | 8 | 349 | 4.8 | 4.8 | 0.00 | 0.00 | 0.00 | 99 | 1025.4 |
| 20260505052331 | 8 | 335 | 3.2 | 4.8 | 0.00 | 0.00 | 0.00 | 99 | 1025.5 |
| 20260505050929 | 9 | 345 | 1.6 | 3.2 | 0.00 | 0.00 | 0.00 | 98 | 1025.4 |
| 20260505041316 | 9 | 359 | 6.4 | 6.4 | 0.00 | 0.00 | 0.00 | 97 | 1025.6 |
| 20260505035910 | 9 | 340 | 4.8 | 6.4 | 0.00 | 0.00 | 0.00 | 96 | 1025.7 |
| 20260505033103 | 10 | 294 | 6.4 | 4.8 | 0.00 | 0.00 | 0.00 | 95 | 1025.8 |
| 20260505031704 | 10 | 90 | 3.2 | 4.8 | 0.00 | 0.00 | 0.00 | 96 | 1026.0 |
| 20260505030301 | 10 | 308 | 4.8 | 8.0 | 0.00 | 0.00 | 0.00 | 95 | 1026.0 |
| 20260505024854 | 10 | 18 | 8.0 | 8.0 | 0.00 | 0.00 | 0.00 | 94 | 1026.0 |
| 20260505023449 | 10 | 68 | 6.4 | 4.8 | 0.00 | 0.00 | 0.00 | 92 | 1026.1 |
| 20260505022046 | 11 | 329 | 8.0 | 8.0 | 0.00 | 0.00 | 0.00 | 90 | 1026.2 |
| 20260505020640 | 11 | 346 | 8.0 | 4.8 | 0.00 | 0.00 | 0.00 | 91 | 1026.3 |
| 20260505015242 | 11 | 80 | 4.8 | 6.4 | 0.00 | 0.00 | 0.00 | 94 | 1026.4 |
| 20260505013837 | 10 | 342 | 3.2 | 0.0 | 0.00 | 0.00 | 0.00 | 94 | 1026.6 |
| 20260505012430 | 10 | 77 | 4.8 | 3.2 | 0.00 | 0.00 | 0.00 | 93 | 1026.8 |
| 20260505011034 | 10 | 86 | 4.8 | 4.8 | 0.00 | 0.00 | 0.00 | 95 | 1027.1 |
| 20260505005623 | 10 | 53 | 6.4 | 4.8 | 0.00 | 0.00 | 0.00 | 95 | 1027.2 |
| 20260505004220 | 10 | 13 | 3.2 | 3.2 | 0.00 | 0.00 | 0.00 | 96 | 1027.5 |
| 20260505002816 | 10 | 312 | 6.4 | 8.0 | 0.00 | 0.00 | 0.00 | 96 | 1027.9 |
| 20260505001413 | 10 | 45 | 3.2 | 4.8 | 0.00 | 0.00 | 0.00 | 97 | 1028.1 |
| 20260505000009 | 10 | 28 | 1.6 | 3.2 | 0.00 | 0.00 | 0.00 | 97 | 1028.4 |
| 20260504234604 | 10 | 121 | 1.6 | 0.0 | 0.00 | 0.00 | 0.00 | 98 | 1028.7 |
| 20260504233200 | 10 | 354 | 4.8 | 1.6 | 0.00 | 0.00 | 0.00 | 99 | 1028.7 |
| 20260504231756 | 10 | 271 | 6.4 | 8.0 | 0.00 | 0.00 | 0.00 | 100 | 1029.0 |
| 20260504230352 | 10 | 287 | 8.0 | 6.4 | 0.00 | 0.00 | 0.00 | 100 | 1029.0 |
| 20260504224948 | 9 | 276 | 6.4 | 6.4 | 0.00 | 0.00 | 0.00 | 100 | 1029.0 |
| 20260504223544 | 9 | 314 | 4.8 | 6.4 | 0.00 | 0.00 | 0.00 | 100 | 1029.1 |
| 20260504222140 | 9 | 311 | 6.4 | 9.7 | 0.00 | 0.00 | 0.00 | 100 | 1029.2 |
| 20260504220735 | 9 | 311 | 4.8 | 8.0 | 0.00 | 0.00 | 0.00 | 100 | 1029.4 |
| 20260504215335 | 8 | 309 | 4.8 | 3.2 | 0.00 | 0.00 | 0.00 | 100 | 1029.5 |
| 20260504213928 | 8 | 329 | 3.2 | 0.0 | 0.00 | 0.00 | 0.00 | 100 | 1029.6 |
| 20260504212524 | 8 | 354 | 4.8 | 3.2 | 0.00 | 0.00 | 0.00 | 100 | 1029.7 |
| 20260504211121 | 8 | 353 | 6.4 | 4.8 | 0.00 | 0.00 | 0.00 | 100 | 1029.6 |
| 20260504205716 | 8 | 305 | 3.2 | 1.6 | 0.00 | 0.00 | 0.00 | 100 | 1029.5 |
| 20260504202910 | 8 | 271 | 1.6 | 4.8 | 0.00 | 0.00 | 0.00 | 100 | 1029.6 |
| 20260504201507 | 8 | 273 | 1.6 | 0.0 | 0.00 | 0.00 | 0.00 | 100 | 1029.6 |
| 20260504200103 | 8 | 325 | 1.6 | 3.2 | 0.00 | 0.00 | 0.00 | 100 | 1029.6 |
| 20260504194700 | 8 | 293 | 0.0 | 3.2 | 0.00 | 0.00 | 0.00 | 100 | 1029.6 |
| 20260504193256 | 8 | 335 | 1.6 | 0.0 | 0.00 | 0.00 | 0.00 | 100 | 1029.5 |
| 20260504191857 | 8 | 111 | 0.0 | 0.0 | 0.00 | 0.00 | 0.00 | 100 | 1029.6 |
| 20260504190450 | 8 | 148 | 0.0 | 0.0 | 0.00 | 0.00 | 0.00 | 100 | 1029.5 |
| 20260504185046 | 8 | 110 | 0.0 | 3.2 | 0.00 | 0.00 | 0.00 | 100 | 1029.5 |
| 20260504183642 | 8 | 302 | 0.0 | 0.0 | 0.00 | 0.00 | 0.00 | 100 | 1029.6 |
| 20260504182238 | 8 | 302 | 0.0 | 0.0 | 0.00 | 0.00 | 0.00 | 100 | 1029.6 |
| 20260504180835 | 8 | 302 | 0.0 | 0.0 | 0.00 | 0.00 | 0.00 | 100 | 1029.6 |
| 20260504175432 | 8 | 302 | 0.0 | 0.0 | 0.00 | 0.00 | 0.00 | 100 | 1029.7 |
| 20260504174028 | 8 | 357 | 0.0 | 0.0 | 0.00 | 0.00 | 0.00 | 100 | 1029.7 |
| 20260504172625 | 8 | 79 | 0.0 | 0.0 | 0.00 | 0.00 | 0.00 | 100 | 1029.7 |
| 20260504171220 | 8 | 79 | 0.0 | 0.0 | 0.00 | 0.00 | 0.00 | 100 | 1029.6 |
| 20260504160203 | 8 | 307 | 0.0 | 0.0 | 0.00 | 0.00 | 0.00 | 100 | 1029.9 |
| 20260504150547 | 7 | 287 | 1.6 | 0.0 | 0.00 | 0.00 | 0.00 | 100 | 1030.4 |
| 20260504140934 | 7 | 316 | 0.0 | 3.2 | 0.00 | 0.00 | 0.00 | 100 | 1031.1 |
| 20260504110645 | 6 | 318 | 0.0 | 0.0 | 0.00 | 0.00 | 0.00 | 100 | 1032.3 |